Location: *
(2.5500°S, 65.9667°W)
Time: 14:47:16
(UTC+00:00)

Cosmos 2084 - Pass Details

Date: 30 May 2022
Orbit: 506 x 671 km, 62.8° (Epoch: 03 July)

Event Time Altitude Azimuth Distance (km) Brightness Sun altitude
Exits shadow 08:33:53 38° 13° (NNE) 817 4.4 -25.8°
Drops below altitude 10° 08:36:20 10° 20° (NNE) 1,739 6.4 -25.3°
Sets 08:38:28 0° 21° (NNE) 2,608 7.4 -24.8°
